sat.trackr.live / text

‹ back to catalog

STARLINK-30965

NORAD 58477 · 2023-186E

PAYLOAD ACTIVE UNKNOWN

§ Identity

Operator
Country
US
Launch date
2023-12-03
Launch site
AFETR
Launch vehicle
Mass (kg)
RCS (m²)

Purposes: comms

External: N2YO · Heavens-Above · Gunter

§ Orbital elements

Epoch: 2026-05-24T23:11:59.564832Z

Period
94.27 min
Inclination
43.0041°
Eccentricity
0.0001307
Mean motion
15.27570376 rev/d
Perigee alt
482.2 km
Apogee alt
484.0 km
Semi-major
6,861.2 km
B*
1.2316e-5
RAAN
341.4200°
Arg perigee
269.6536°
Mean anomaly
90.4166°
Rev number
13,769

§ Raw data

STARLINK-309651 58477U 23186E   26144.96666163  .00000077  00000+0  12316-4 0  99912 58477  43.0041 341.4200 0001307 269.6536  90.4166 15.27570376137692

JSON: /api/v1/satellites/58477 · /tle

For live sub-satellite position, see the globe view (requires WebGL).

§ Visibility from observer

Set your observer location to see the next 7 days of passes ≥ 10°. The values pass through the URL so the page stays shareable.

No JS? Fill the form by hand. The geolocation button needs JavaScript.